Temp
-7 -6 -6 -6 -6 -6 -6 -6 -7 -7 -7 -7 -7 -7 -7 -7 -7 -7 -7 -7 -7 -6 -6 -6 -7 -7 -7 -6 -5 -6 -6 -5 -5
-7 -6 -5 -5 -6 -6 -6 -6 -7 -7 -7 -7 -6 -6 -7 -7 -7 -6 -7 -7 -7 -6 -6 -6 -6 -6 -6 -6 -5 -5 -5 -5 -5
-6 -6 -5 -6 -6 -6 -6 -6 -6 -6 -6 -6 -6 -6 -6 -6 -6 -6 -6 -6 -7 -6 -5 -5 -5 -5 -5 -5 -5 -5 -5 -5 -5
-6 -6 -5 -5 -6 -5 -6 -6 -6 -6 -6 -6 -6 -6 -6 -6 -7 -7 -6 -6 -5 -5 -5 -5 -5 -5 -5 -5 -5 -5 -6 -6 -6
-5 -6 -5 -5 -6 -5 -5 -6 -6 -6 -6 -6 -6 -6 -6 -7 -6 -6 -6 -5 -5 -5 -5 -5 -5 -5 -5 -4 -5 -5 -5 -6 -6
-5 -5 -5 -5 -5 -5 -5 -6 -6 -6 -6 -6 -6 -6 -6 -6 -5 -5 -5 -5 -5 -5 -5 -5 -5 -4 -4 -5 -5 -6 -6 -7 -7
-5 -5 -5 -5 -5 -5 -5 -6 -5 -6 -6 -6 -6 -6 -5 -5 -5 -5 -4 -4 -4 -4 -5 -4 -4 -4 -4 -4 -5 -5 -6 -6 -6
-5 -5 -5 -5 -6 -5 -5 -5 -5 -5 -6 -6 -5 -5 -4 -4 -4 -4 -4 -4 -4 -4 -4 -4 -4 -4 -4 -4 -4 -5 -6 -6 -6
-5 -5 -5 -5 -5 -5 -5 -5 -5 -5 -5 -5 -4 -4 -4 -4 -4 -4 -4 -4 -4 -4 -4 -4 -4 -4 -4 -4 -4 -5 -5 -6 -6
-5 -5 -5 -5 -5 -5 -5 -5 -5 -5 -5 -4 -3 -3 -4 -4 -4 -4 -4 -4 -4 -4 -4 -4 -4 -4 -4 -4 -4 -5 -5 -5 -6
-5 -5 -5 -5 -5 -5 -5 -5 -5 -5 -4 -4 -3 -3 -3 -3 -4 -4 -4 -4 -5 -4 -4 -4 -4 -4 -4 -4 -4 -5 -5 -6 -6
-5 -6 -6 -5 -6 -5 -5 -5 -5 -5 -4 -3 -3 -3 -4 -4 -4 -4 -4 -5 -5 -4 -4 -4 -4 -4 -4 -4 -4 -4 -4 -5 -6
-6 -6 -5 -5 -6 -5 -5 -5 -5 -4 -4 -3 -3 -3 -4 -4 -4 -4 -4 -4 -4 -4 -4 -4 -4 -4 -4 -4 -4 -5 -5 -5 -6
-5 -5 -5 -5 -5 -4 -4 -4 -4 -4 -3 -4 -4 -4 -4 -4 -4 -4 -4 -5 -5 -5 -4 -4 -4 -4 -4 -4 -5 -5 -5 -6 -6
-5 -5 -5 -5 -4 -4 -4 -4 -4 -4 -4 -4 -4 -4 -4 -5 -4 -4 -5 -5 -5 -5 -5 -5 -5 -4 -4 -4 -4 -4 -5 -5 -6
-5 -5 -5 -4 -4 -4 -4 -4 -4 -4 -4 -4 -4 -4 -4 -4 -4 -5 -5 -5 -5 -5 -5 -5 -5 -5 -5 -4 -4 -4 -5 -5 -5
-5 -5 -4 -4 -4 -4 -4 -4 -4 -4 -4 -4 -4 -4 -4 -4 -5 -5 -5 -5 -5 -5 -5 -5 -5 -5 -5 -5 -5 -5 -5 -5 -6
-6 -6 -5 -5 -4 -4 -4 -4 -4 -4 -4 -4 -4 -4 -4 -4 -5 -6 -5 -6 -6 -5 -5 -5 -6 -6 -6 -5 -5 -5 -5 -6 -6
-7 -6 -6 -5 -5 -5 -5 -4 -4 -4 -4 -4 -4 -4 -5 -5 -6 -6 -6 -6 -6 -6 -6 -6 -6 -5 -6 -6 -6 -6 -5 -6 -6
-7 -7 -7 -7 -6 -5 -5 -5 -5 -4 -5 -5 -5 -5 -5 -6 -6 -7 -6 -6 -7 -7 -7 -7 -6 -6 -5 -6 -6 -6 -6 -6 -7
Height
5916 5919 5921 5922 5919 5918 5918 5918 5919 5922 5923 5924 5923 5923 5923 5925 5927 5929 5930 5929 5931 5930 5931 5930 5931 5933 5932 5930 5928 5929 5928 5926 5924
5919 5921 5923 5922 5919 5921 5922 5923 5925 5926 5926 5926 5927 5927 5929 5930 5931 5932 5931 5931 5930 5927 5929 5929 5929 5931 5929 5929 5930 5929 5928 5925 5922
5920 5923 5923 5923 5923 5925 5925 5926 5928 5929 5928 5929 5929 5930 5932 5932 5931 5932 5932 5932 5930 5931 5929 5931 5930 5930 5930 5930 5929 5927 5926 5922 5919
5921 5924 5924 5923 5927 5929 5930 5930 5932 5933 5933 5933 5933 5934 5934 5932 5932 5931 5934 5933 5934 5932 5933 5934 5930 5927 5926 5925 5923 5921 5919 5918 5914
5921 5923 5925 5925 5930 5933 5934 5933 5935 5937 5936 5937 5937 5937 5936 5934 5936 5935 5936 5936 5934 5933 5933 5931 5929 5926 5924 5922 5920 5918 5915 5913 5910
5922 5925 5925 5929 5932 5935 5935 5936 5938 5939 5939 5939 5938 5938 5938 5937 5937 5937 5936 5935 5935 5935 5934 5933 5930 5927 5925 5922 5918 5915 5912 5908 5906
5922 5924 5926 5930 5931 5935 5936 5938 5939 5940 5940 5938 5939 5941 5941 5940 5939 5938 5937 5938 5938 5937 5935 5933 5928 5927 5924 5920 5917 5914 5912 5909 5906
5922 5923 5927 5929 5932 5936 5938 5939 5940 5939 5939 5940 5941 5941 5941 5941 5940 5939 5939 5939 5938 5937 5935 5932 5931 5928 5925 5921 5918 5914 5911 5908 5905
5921 5924 5927 5930 5933 5935 5938 5938 5939 5940 5941 5942 5942 5942 5941 5940 5940 5940 5940 5939 5938 5936 5934 5933 5931 5928 5925 5920 5916 5913 5911 5908 5904
5920 5922 5925 5929 5933 5934 5936 5937 5938 5939 5940 5940 5941 5940 5940 5940 5940 5940 5940 5939 5938 5937 5935 5933 5931 5927 5923 5919 5916 5912 5909 5905 5903
5919 5921 5925 5929 5930 5933 5934 5937 5938 5939 5940 5940 5940 5941 5941 5941 5941 5941 5939 5938 5937 5935 5933 5931 5930 5927 5923 5919 5914 5911 5907 5905 5901
5916 5921 5924 5926 5929 5932 5934 5936 5937 5939 5940 5940 5941 5942 5942 5941 5940 5939 5937 5936 5935 5933 5933 5931 5929 5926 5923 5918 5913 5908 5904 5901 5897
5914 5919 5923 5926 5929 5931 5933 5935 5937 5938 5940 5941 5942 5942 5941 5941 5939 5939 5937 5937 5936 5935 5934 5931 5928 5925 5921 5917 5912 5907 5903 5898 5894
5915 5919 5923 5925 5928 5929 5931 5934 5936 5938 5939 5941 5942 5942 5941 5941 5940 5939 5938 5937 5936 5934 5932 5930 5926 5923 5919 5915 5911 5905 5900 5895 5890
5912 5917 5921 5924 5926 5927 5930 5932 5934 5937 5938 5940 5940 5941 5941 5941 5941 5939 5938 5936 5934 5933 5931 5928 5924 5920 5917 5912 5907 5902 5898 5892 5887
5910 5917 5919 5922 5923 5925 5927 5930 5933 5934 5936 5938 5939 5939 5940 5939 5939 5937 5936 5935 5933 5931 5928 5925 5922 5918 5913 5909 5904 5899 5894 5887 5883
5911 5914 5915 5919 5920 5923 5924 5927 5930 5932 5934 5935 5937 5938 5938 5937 5937 5936 5935 5932 5930 5928 5925 5921 5918 5914 5910 5907 5902 5896 5890 5884 5879
5908 5910 5913 5917 5918 5920 5923 5925 5928 5930 5931 5932 5934 5935 5935 5934 5934 5933 5931 5929 5927 5925 5922 5920 5917 5913 5909 5903 5897 5891 5885 5880 5875
5903 5906 5910 5913 5915 5919 5921 5923 5926 5927 5928 5929 5930 5931 5931 5930 5929 5928 5927 5925 5924 5922 5920 5917 5914 5910 5905 5899 5893 5888 5883 5877 5871
5898 5903 5907 5910 5912 5915 5917 5919 5921 5923 5925 5925 5925 5926 5926 5926 5924 5924 5923 5922 5920 5917 5915 5913 5910 5906 5901 5895 5889 5883 5877 5872 5865
Wind_Speed
14 14 15 16 19 21 21 20 19 18 18 18 17 17 16 15 14 14 12 7 6 5 1 1 5 8 9 11 9 7 5 6 8
16 15 17 17 19 20 19 20 18 17 16 15 16 15 14 12 9 9 4 4 4 3 3 12 10 8 10 10 6 5 6 7 8
19 18 19 19 18 18 20 19 17 14 14 14 14 13 12 10 6 6 4 7 10 7 12 10 9 9 8 7 7 7 9 10 10
20 19 20 21 16 19 20 20 18 16 14 14 13 11 9 9 11 12 6 7 7 8 9 10 11 13 14 16 16 16 15 14 13
21 19 20 22 19 18 18 18 16 13 10 11 9 11 13 10 10 10 8 11 12 12 12 15 16 17 18 19 19 18 17 14 13
21 21 20 21 20 17 14 13 11 8 8 6 9 12 10 10 10 12 12 12 12 12 12 13 15 16 18 20 19 19 17 17 15
20 20 19 17 15 11 10 8 4 5 7 7 8 7 9 10 11 12 12 11 10 11 11 12 14 19 21 22 23 22 19 20 16
20 18 16 14 13 9 7 3 3 4 6 4 4 7 11 12 12 11 9 9 10 13 12 11 14 19 19 19 20 21 18 18 16
19 17 15 13 11 8 4 2 1 2 2 4 6 8 8 9 9 8 8 10 13 11 11 11 13 16 16 18 20 20 17 16 16
18 16 13 10 9 7 4 1 1 2 2 5 5 6 6 7 8 9 9 10 11 11 8 9 11 15 18 20 21 20 19 18 18
19 15 12 10 7 5 1 2 2 1 2 4 3 3 5 7 9 9 8 7 10 10 6 8 9 14 19 22 23 21 20 18 19
17 15 12 11 9 6 4 3 2 2 3 2 2 4 6 7 8 8 9 10 13 5 6 11 10 15 18 21 23 25 26 24 23
18 17 15 12 10 9 6 4 2 2 1 1 3 6 5 5 6 6 8 8 8 6 7 11 14 17 20 22 23 24 26 26 25
15 15 16 14 14 11 8 5 4 3 1 1 3 1 3 6 7 9 9 9 9 11 14 17 19 20 21 21 22 24 27 28 27
14 17 20 16 14 12 9 6 5 4 2 1 1 1 6 8 9 10 10 9 11 12 15 17 18 21 23 24 26 27 29 30 30
16 20 20 17 14 13 12 9 7 5 3 3 3 2 5 6 9 9 10 10 11 13 14 14 16 19 24 27 29 31 33 34 34
24 23 19 17 16 15 13 11 8 6 4 5 5 6 7 8 9 8 9 12 13 12 13 17 19 25 28 28 31 34 37 37 36
24 20 18 18 16 14 13 12 10 7 6 5 4 6 8 8 6 7 11 11 11 11 15 21 25 26 27 28 32 36 38 38 37
26 22 18 14 13 11 11 11 11 10 8 7 5 6 9 9 9 10 13 12 14 14 16 22 25 25 26 31 37 40 37 36 36
28 22 18 17 15 16 13 9 10 11 10 8 7 8 10 11 11 12 14 16 17 17 21 24 27 26 30 30 31 35 35 36 36
Wind_Direction
114 110 112 112 108 106 103 99 97 100 104 104 103 99 99 99 104 108 120 140 144 152 130 286 219 56 25 48 55 22 359 334 330
125 120 112 106 101 105 107 107 106 109 106 103 100 96 88 86 84 85 76 66 336 114 76 65 36 16 20 32 46 17 347 341 338
128 126 118 109 107 112 109 110 109 106 101 96 88 85 85 83 70 84 78 80 48 39 40 35 30 35 24 14 3 342 328 322 319
134 130 122 111 110 113 112 112 109 103 97 89 81 76 80 91 72 108 75 65 62 45 49 48 39 20 9 0 352 346 342 333 326
137 135 128 122 129 126 121 114 107 103 97 86 78 84 94 89 90 97 97 88 76 54 34 28 20 10 0 349 345 345 343 342 331
142 139 131 136 135 133 120 113 110 102 81 70 65 84 78 84 85 80 78 68 52 38 24 14 10 6 353 348 348 348 351 349 342
141 138 139 145 136 135 124 125 112 77 62 52 62 88 102 96 84 75 67 57 41 24 14 16 22 7 360 352 348 346 348 349 346
146 142 144 144 150 160 157 158 103 59 56 55 69 96 95 90 84 73 60 45 34 25 18 20 12 5 1 348 344 345 350 353 355
146 146 149 152 158 153 173 153 110 79 58 78 92 102 90 76 66 54 38 37 35 25 23 16 11 10 3 0 1 356 346 340 344
143 145 150 155 159 153 156 176 313 3 47 88 92 80 61 49 37 30 25 23 16 12 14 22 18 14 11 9 9 359 351 339 332
152 156 156 160 147 159 149 240 293 5 106 114 98 68 49 36 27 24 21 6 347 345 20 27 17 7 7 4 5 2 354 345 331
153 163 178 165 170 164 173 221 242 209 161 128 51 35 36 28 15 11 356 339 341 350 29 4 5 8 1 0 0 359 358 353 341
168 181 188 169 175 163 153 166 198 202 168 27 41 36 27 8 7 10 352 8 48 28 5 6 7 5 0 358 356 356 354 348 343
183 190 196 175 177 149 149 165 187 195 234 54 36 35 13 27 38 32 44 52 32 18 13 12 8 4 1 359 357 353 353 348 344
195 197 189 177 166 157 169 183 201 216 227 334 351 61 31 40 36 49 46 32 27 29 15 5 5 1 358 357 357 355 351 353 351
205 198 177 178 169 176 181 191 207 219 231 262 296 12 24 26 27 38 41 36 20 0 0 3 3 359 357 354 355 352 352 351 348
194 190 175 182 180 186 181 193 213 217 247 278 316 337 348 358 11 19 357 345 353 359 353 353 359 356 351 351 355 353 352 351 346
183 173 170 183 182 184 187 199 207 207 218 253 294 313 315 327 343 320 321 333 345 337 345 346 343 337 337 346 351 352 350 347 343
174 170 176 182 183 195 200 209 217 216 218 235 258 280 293 304 303 301 318 317 324 325 331 336 341 340 342 338 336 337 338 340 339
175 179 192 187 195 213 211 214 224 230 231 234 247 269 278 285 292 316 320 330 326 324 332 338 340 335 337 334 337 336 338 338 337